This demonstration page uses our WeatherBlox Daily Observations layout. Learn more.

Left ArrowRight Arrow

40.92945, -100.16068

Hourly Observations for December 4, 2020

Temp ( °F °C ) Dew Point ( °F °C ) Humidity (%) Winds ( mph kmh ) Pressure ( in mb ) Visibility ( mi km ) Precip ( " mm )
12:15 am 00:15 Clear 25 -4 13 -10.3 62 62 WNW 8 13 30.26 1025 10 16.0934 0 0
12:35 am 00:35 Clear 25 -3.8 13 -10.3 61 61 WNW 7 11 30.26 1025 10 16.0934 0 0
12:55 am 00:55 Clear 25 -4 13 -10.3 62 62 WNW 7 11 30.25 1024 10 16.0934 0 0
1:15 am 01:15 Clear 25 -4.1 14 -10.2 63 63 WNW 9 15 30.25 1024 10 16.0934 0 0
1:35 am 01:35 Clear 24 -4.3 14 -10.1 64 64 W 6 9 30.25 1024 10 16.0934 0 0
1:55 am 01:55 Clear 24 -4.5 14 -9.9 66 66 W 6 9 30.25 1024 10 16.0934 0 0
2:15 am 02:15 Clear 23 -4.8 14 -10.2 66 66 W 7 11 30.26 1025 10 16.0934 0 0
2:35 am 02:35 Clear 23 -5 14 -10.2 67 67 WNW 5 7 30.26 1025 10 16.0934 0 0
2:55 am 02:55 Clear 23 -5.1 14 -10.1 68 68 WNW 3 6 30.26 1025 10 16.0934 0 0
3:15 am 03:15 Clear 23 -5.1 14 -10 69 69 WNW 6 9 30.26 1025 10 16.0934 0 0
3:35 am 03:35 Clear 23 -5.1 14 -10 69 69 WNW 9 15 30.26 1025 10 16.0934 0 0
3:55 am 03:55 Clear 24 -4.3 14 -9.8 66 66 WNW 9 15 30.25 1024 10 16.0934 0 0
4:15 am 04:15 Clear 25 -3.7 15 -9.5 64 64 WNW 10 17 30.24 1024 10 16.0934 0 0
4:35 am 04:35 Clear 25 -4 15 -9.5 66 66 WNW 9 15 30.25 1024 10 16.0934 0 0
4:55 am 04:55 Clear 25 -3.8 15 -9.5 65 65 WNW 10 17 30.25 1024 10 16.0934 0 0
5:15 am 05:15 Clear 25 -4.1 15 -9.4 67 67 WNW 10 17 30.25 1024 10 16.0934 0 0
5:35 am 05:35 Clear 24 -4.5 15 -9.3 69 69 WNW 10 17 30.25 1024 10 16.0934 0 0
5:55 am 05:55 Clear 24 -4.6 15 -9.3 70 70 WNW 10 17 30.25 1025 10 16.0934 0 0
6:15 am 06:15 Clear 24 -4.7 16 -9.1 72 72 WNW 12 19 30.26 1025 10 16.0934 0 0
6:35 am 06:35 Clear 23 -4.8 16 -9 73 73 WNW 10 17 30.26 1025 10 16.0934 0 0
6:55 am 06:55 Clear 24 -4.7 16 -8.7 74 74 WNW 10 17 30.26 1025 10 16.0934 0 0
7:15 am 07:15 Clear 24 -4.5 17 -8.5 74 74 WNW 12 19 30.25 1024 10 16.0934 0 0
7:35 am 07:35 Clear 25 -4.1 17 -8.2 73 73 WNW 13 20 30.25 1024 10 16.0934 0 0
7:55 am 07:55 Sunny 24 -4.2 17 -8.2 74 74 WNW 13 20 30.26 1025 10 16.0934 0 0
8:15 am 08:15 Sunny 25 -3.7 18 -8 72 72 WNW 14 22 30.25 1025 10 16.0934 0 0
8:35 am 08:35 Sunny 27 -2.9 18 -7.7 70 70 WNW 15 24 30.26 1025 10 16.0934 0 0
8:55 am 08:55 Sunny 28 -2.1 19 -7.4 67 67 WNW 14 22 30.25 1024 10 16.0934 0 0
9:15 am 09:15 Sunny 31 -0.8 19 -7 63 63 WNW 15 24 30.24 1024 10 16.0934 0 0
9:35 am 09:35 Sunny 32 0 20 -6.5 62 62 WNW 16 26 30.23 1024 10 16.0934 0 0
9:55 am 09:55 Sunny 34 1.2 21 -6.3 58 58 WNW 16 26 30.23 1024 10 16.0934 0 0
10:15 am 10:15 Sunny 37 2.6 21 -6 53 53 WNW 14 22 30.21 1023 10 16.0934 0 0
10:35 am 10:35 Sunny 39 4.1 22 -5.6 50 50 WNW 13 20 30.2 1023 10 16.0934 0 0
10:55 am 10:55 Sunny 42 5.6 23 -5.2 46 46 WNW 13 20 30.18 1022 10 16.0934 0 0
11:15 am 11:15 Sunny 45 7.2 23 -5 42 42 WNW 13 20 30.17 1022 10 16.0934 0 0
11:35 am 11:35 Sunny 47 8.5 23 -4.9 39 39 WNW 14 22 30.15 1021 10 16.0934 0 0
11:55 am 11:55 Sunny 49 9.2 23 -4.9 37 37 WNW 15 24 30.14 1021 10 16.0934 0 0
12:15 pm 12:15 Sunny 50 10.2 24 -4.7 35 35 WNW 13 20 30.13 1020 10 16.0934 0 0
12:35 pm 12:35 Sunny 52 11.2 24 -4.6 33 33 W 13 20 30.11 1020 10 16.0934 0 0
12:55 pm 12:55 Sunny 54 12.1 24 -4.5 31 31 WNW 13 20 30.09 1019 10 16.0934 0 0
1:15 pm 13:15 Sunny 55 12.5 24 -4.4 31 31 WNW 15 24 30.09 1019 10 16.0934 0 0
1:35 pm 13:35 Sunny 55 13 24 -4.4 30 30 WNW 13 20 30.07 1018 10 16.0934 0 0
1:55 pm 13:55 Sunny 57 13.9 24 -4.5 28 28 WNW 12 19 30.07 1018 10 16.0934 0 0
2:15 pm 14:15 Sunny 58 14.4 24 -4.5 27 27 WNW 12 19 30.05 1018 10 16.0934 0 0
2:35 pm 14:35 Sunny 59 15.1 24 -4.7 25 25 NW 12 19 30.04 1017 10 16.0934 0 0
2:55 pm 14:55 Sunny 60 15.5 23 -4.8 25 25 NW 12 19 30.04 1017 10 16.0934 0 0
3:15 pm 15:15 Sunny 60 15.3 24 -4.5 25 25 W 9 15 30.04 1017 10 16.0934 0 0
3:35 pm 15:35 Sunny 59 15.2 24 -4.4 26 26 W 8 13 30.04 1017 10 16.0934 0 0
3:55 pm 15:55 Sunny 59 14.9 24 -4.3 26 26 W 9 15 30.06 1018 10 16.0934 0 0
4:15 pm 16:15 Sunny 57 13.9 24 -4.2 28 28 W 8 13 30.07 1018 10 16.0934 0 0
4:35 pm 16:35 Sunny 55 12.5 24 -4.4 31 31 W 7 11 30.08 1019 10 16.0934 0 0
4:55 pm 16:55 Sunny 51 10.4 23 -5 34 34 W 7 11 30.1 1019 10 16.0934 0 0
5:15 pm 17:15 Clear 48 8.9 23 -5.2 37 37 W 8 13 30.12 1020 10 16.0934 0 0
5:35 pm 17:35 Clear 46 7.5 22 -5.4 40 40 W 8 13 30.13 1020 10 16.0934 0 0
5:55 pm 17:55 Clear 45 7.3 22 -5.3 41 41 W 7 11 30.14 1021 10 16.0934 0 0
6:15 pm 18:15 Clear 39 3.8 22 -5.8 50 50 W 6 9 30.18 1022 10 16.0934 0 0
6:35 pm 18:35 Clear 35 1.6 20 -6.8 54 54 NW 5 7 30.21 1023 7 11.26538 0 0
6:55 pm 18:55 Clear 36 2.4 21 -6.1 54 54 NW 3 6 30.2 1023 10 16.0934 0 0
7:15 pm 19:15 Clear 36 2.3 20 -6.7 52 52 WNW 7 11 30.2 1023 10 16.0934 0 0
7:35 pm 19:35 Clear 33 0.3 20 -6.6 60 60 WNW 8 13 30.23 1024 7 11.26538 0 0
7:55 pm 19:55 Clear 31 -0.8 19 -7.1 63 63 NW 8 13 30.26 1025 10 16.0934 0 0
8:15 pm 20:15 Clear 31 -0.8 20 -6.8 64 64 WNW 6 9 30.27 1025 10 16.0934 0 0
8:35 pm 20:35 Clear 33 0.6 21 -6.2 61 61 WNW 9 15 30.25 1024 10 16.0934 0 0
8:55 pm 20:55 Clear 34 0.9 21 -6.3 59 59 WNW 8 13 30.26 1025 10 16.0934 0 0
9:15 pm 21:15 Clear 33 0.8 20 -6.5 59 59 WNW 12 19 30.26 1025 10 16.0934 0 0
9:35 pm 21:35 Clear 33 0.5 20 -6.6 59 59 WNW 7 11 30.27 1025 10 16.0934 0 0
9:55 pm 21:55 Clear 33 0.4 20 -6.6 60 60 WNW 9 15 30.27 1025 10 16.0934 0 0
10:15 pm 22:15 Clear 31 -0.5 20 -6.6 64 64 W 10 17 30.28 1025 10 16.0934 0 0
10:35 pm 22:35 Clear 31 -0.5 20 -6.8 63 63 W 9 15 30.29 1026 10 16.0934 0 0
10:55 pm 22:55 Clear 31 -0.6 20 -6.5 65 65 W 9 15 30.29 1026 10 16.0934 0 0
11:15 pm 23:15 Clear 31 -0.5 20 -6.6 64 64 W 12 19 30.3 1026 10 16.0934 0 0
11:35 pm 23:35 Clear 32 -0.1 21 -6.3 63 63 W 9 15 30.31 1026 10 16.0934 0 0
11:55 pm 23:55 Clear 31 -0.4 20 -6.5 64 64 W 8 13 30.32 1027 10 16.0934 0 0

Powered by AerisWeather